Find Starlink 37836

NORAD ID: 69425 Int'l Des: 2026-126 Owner: SPXS Country: US Constellation: starlink operational
LEOCIRCULARRETROGRADE

現在のビュー

3D地球を読み込み中...

About Starlink 37836

Starlink 37836 (NORAD 69425) is a starlink constellation satellite (v2 mini) launched Jun 7, 2026 by SPXS of US. It operates in LEO, CIRCULAR, RETROGRADE orbit with a mass of 575.00 kg.

次回通過

Passes for default location (London). Set your location on the main map for personalized predictions.

高度履歴

Loading altitude history...

軌道要素

1 69425U 26126F 26221.61540153 .00004779 00000-0 15017-3 0 9995
2 69425 97.2856 83.4173 0001673 75.6894 284.4534 15.33463336 11107
Epoch: Aug 9, 2026 • Age: 17 hours

現在のステータス

高度 486.8 km
遠地点 / 近地点 N/A
速度 7.62 km/s
衛星直下点 -53.12°S, 18.61°E
打ち上げ日 Jun 7, 2026
運用期間 0.1 years
タイプ internet

技術仕様

分類 Payload
質量 575.00 kg
乾燥質量 530.00 kg
総質量 575.00 kg
長さ 0.30 m
直径 4.10 m
スパン 29.00 m
形状 Box + pan
製造者 SPXS
バスタイプ Starlink V2MO
フェーズステータス In Orbit
所有者/国 SPXS/US

Most Searched